Time,TemperatureF,DewpointF,PressureIn,WindDirection,WindDirectionDegrees,WindSpeedMPH,WindSpeedGustMPH,Humidity,HourlyPrecipIn,Conditions,Clouds,dailyrainin,SoftwareType,DateUTC
2013-03-10 00:00:00,30.2,24.8,30.21,North,355,0.0,0.0,80,0.00,,,0.00,Wunderground v.1.15,2013-03-10 05:00:00,
2013-03-10 00:05:00,30.3,24.9,30.22,North,355,0.0,0.0,80,0.00,,,0.00,Wunderground v.1.15,2013-03-10 05:05:00,
2013-03-10 00:10:00,30.3,24.9,30.21,North,355,0.0,0.0,80,0.00,,,0.00,Wunderground v.1.15,2013-03-10 05:10:00,
2013-03-10 09:10:00,43.4,27.8,30.09,SSE,154,1.0,2.0,54,0.00,,,0.00,Wunderground v.1.15,2013-03-10 13:10:00,
2013-03-10 09:15:00,43.7,28.1,30.09,SSE,155,2.0,6.0,54,0.00,,,0.00,Wunderground v.1.15,2013-03-10 13:15:00,
2013-03-10 09:20:00,44.0,28.0,30.08,SSE,155,2.0,2.0,53,0.00,,,0.00,Wunderground v.1.15,2013-03-10 13:20:00,
2013-03-10 09:25:00,44.1,28.0,30.09,SSE,155,1.0,2.0,53,0.00,,,0.00,Wunderground v.1.15,2013-03-10 13:25:00,
2013-03-10 09:30:00,44.4,27.9,30.09,SSE,155,1.0,2.0,52,0.00,,,0.00,Wunderground v.1.15,2013-03-10 13:30:00,
2013-03-10 09:35:00,44.8,28.2,30.09,SE,145,1.0,2.0,52,0.00,,,0.00,Wunderground v.1.15,2013-03-10 13:35:00,
2013-03-10 09:45:00,45.6,28.0,30.09,SSE,156,2.0,4.0,50,0.00,,,0.00,Wunderground v.1.15,2013-03-10 13:45:00,
2013-03-10 09:50:00,46.1,28.5,30.09,SSE,159,2.0,7.0,50,0.00,,,0.00,Wunderground v.1.15,2013-03-10 13:50:00,
2013-03-10 09:55:00,47.0,28.3,30.08,SSE,163,2.0,7.0,48,0.00,,,0.00,Wunderground v.1.15,2013-03-10 13:55:00,
2013-03-10 10:00:00,48.4,29.1,30.08,SSE,154,3.0,3.0,47,0.00,,,0.00,Wunderground v.1.15,2013-03-10 14:00:00,
2013-03-10 10:05:00,49.0,29.1,30.08,South,186,3.0,6.0,46,0.00,,,0.00,Wunderground v.1.15,2013-03-10 14:05:00,
2013-03-10 10:10:00,48.8,28.4,30.09,South,172,2.0,6.0,45,0.00,,,0.00,Wunderground v.1.15,2013-03-10 14:10:00,
2013-03-10 10:15:00,48.7,28.3,30.08,SSE,155,2.0,6.0,45,0.00,,,0.00,Wunderground v.1.15,2013-03-10 14:15:00,
2013-03-10 10:25:00,48.9,28.5,30.08,SSE,160,3.0,6.0,45,0.00,,,0.00,Wunderground v.1.15,2013-03-10 14:25:00,
2013-03-10 10:30:00,49.0,28.6,30.08,South,173,4.0,4.0,45,0.00,,,0.00,Wunderground v.1.15,2013-03-10 14:30:00,
2013-03-10 10:35:00,49.2,29.3,30.08,SSE,160,3.0,6.0,46,0.00,,,0.00,Wunderground v.1.15,2013-03-10 14:35:00,
2013-03-10 10:40:00,49.3,28.8,30.08,South,169,3.0,3.0,45,0.00,,,0.00,Wunderground v.1.15,2013-03-10 14:40:00,
2013-03-10 10:45:00,49.4,28.4,30.09,South,171,3.0,6.0,44,0.00,,,0.00,Wunderground v.1.15,2013-03-10 14:45:00,
2013-03-10 10:50:00,49.5,28.5,30.09,SSW,192,3.0,3.0,44,0.00,,,0.00,Wunderground v.1.15,2013-03-10 14:50:00,
2013-03-10 10:55:00,49.6,29.1,30.09,South,175,3.0,5.0,45,0.00,,,0.00,Wunderground v.1.15,2013-03-10 14:55:00,
2013-03-10 11:05:00,49.7,28.6,30.08,SSE,158,3.0,6.0,44,0.00,,,0.00,Wunderground v.1.15,2013-03-10 15:05:00,
2013-03-10 11:10:00,49.9,28.8,30.08,South,175,3.0,3.0,44,0.00,,,0.00,Wunderground v.1.15,2013-03-10 15:10:00,
2013-03-10 11:15:00,50.0,28.9,30.08,SW,232,3.0,6.0,44,0.00,,,0.00,Wunderground v.1.15,2013-03-10 15:15:00,
2013-03-10 11:20:00,50.0,28.4,30.08,South,175,3.0,6.0,43,0.00,,,0.00,Wunderground v.1.15,2013-03-10 15:20:00,
2013-03-10 11:25:00,50.0,28.4,30.08,SSE,167,3.0,6.0,43,0.00,,,0.00,Wunderground v.1.15,2013-03-10 15:25:00,
2013-03-10 11:30:00,50.0,28.9,30.08,South,184,3.0,6.0,44,0.00,,,0.00,Wunderground v.1.15,2013-03-10 15:30:00,
2013-03-10 11:40:00,50.5,28.8,30.07,SSE,168,3.0,3.0,43,0.00,,,0.00,Wunderground v.1.15,2013-03-10 15:40:00,
2013-03-10 11:45:00,50.8,29.6,30.07,SSW,207,4.0,4.0,44,0.00,,,0.00,Wunderground v.1.15,2013-03-10 15:45:00,
2013-03-10 11:50:00,51.1,29.4,30.07,South,169,3.0,8.0,43,0.00,,,0.00,Wunderground v.1.15,2013-03-10 15:50:00,
2013-03-10 11:55:00,51.2,29.4,30.07,SSE,168,3.0,8.0,43,0.00,,,0.00,Wunderground v.1.15,2013-03-10 15:55:00,
2013-03-10 12:00:00,51.3,29.0,30.07,SSW,205,3.0,6.0,42,0.00,,,0.00,Wunderground v.1.15,2013-03-10 16:00:00,
2013-03-10 12:05:00,51.3,29.5,30.06,SSE,153,3.0,6.0,43,0.00,,,0.00,Wunderground v.1.15,2013-03-10 16:05:00,
2013-03-10 12:10:00,51.4,29.6,30.06,SSE,159,3.0,3.0,43,0.00,,,0.00,Wunderground v.1.15,2013-03-10 16:10:00,
2013-03-10 12:20:00,52.1,30.3,30.06,SSE,167,3.0,6.0,43,0.00,,,0.00,Wunderground v.1.15,2013-03-10 16:20:00,
2013-03-10 12:25:00,52.2,30.4,30.06,SSW,200,3.0,6.0,43,0.00,,,0.00,Wunderground v.1.15,2013-03-10 16:25:00,
2013-03-10 12:30:00,52.5,30.0,30.06,SE,146,2.0,6.0,42,0.00,,,0.00,Wunderground v.1.15,2013-03-10 16:30:00,
2013-03-10 12:35:00,52.9,30.4,30.06,SSE,153,3.0,6.0,42,0.00,,,0.00,Wunderground v.1.15,2013-03-10 16:35:00,
2013-03-10 12:45:00,53.5,30.4,30.05,SSE,163,3.0,6.0,41,0.00,,,0.00,Wunderground v.1.15,2013-03-10 16:45:00,
2013-03-10 12:50:00,53.8,30.6,30.05,South,178,2.0,6.0,41,0.00,,,0.00,Wunderground v.1.15,2013-03-10 16:50:00,
2013-03-10 12:55:00,54.1,31.5,30.05,SSE,159,2.0,6.0,42,0.00,,,0.00,Wunderground v.1.15,2013-03-10 16:55:00,
2013-03-10 13:00:00,54.3,31.7,30.05,South,169,2.0,6.0,42,0.00,,,0.00,Wunderground v.1.15,2013-03-10 17:00:00,
2013-03-10 13:05:00,54.8,32.1,30.05,SSE,155,2.0,6.0,42,0.00,,,0.00,Wunderground v.1.15,2013-03-10 17:05:00,
2013-03-10 13:10:00,55.4,32.7,30.05,SSE,157,2.0,6.0,42,0.00,,,0.00,Wunderground v.1.15,2013-03-10 17:10:00,
2013-03-10 13:20:00,56.2,33.4,30.05,SSE,157,2.0,2.0,42,0.00,,,0.00,Wunderground v.1.15,2013-03-10 17:20:00,
2013-03-10 13:25:00,57.3,33.2,30.04,SSW,202,1.0,6.0,40,0.00,,,0.00,Wunderground v.1.15,2013-03-10 17:25:00,
2013-03-10 13:30:00,59.0,32.7,30.04,SSW,202,2.0,6.0,37,0.00,,,0.00,Wunderground v.1.15,2013-03-10 17:30:00,
2013-03-10 13:35:00,59.9,32.9,30.04,SW,227,2.0,6.0,36,0.00,,,0.00,Wunderground v.1.15,2013-03-10 17:35:00,
2013-03-10 13:40:00,60.4,34.0,30.03,South,173,2.0,6.0,37,0.00,,,0.00,Wunderground v.1.15,2013-03-10 17:40:00,
2013-03-10 13:45:00,60.0,32.9,30.03,SSE,155,2.0,6.0,36,0.00,,,0.00,Wunderground v.1.15,2013-03-10 17:45:00,
2013-03-10 13:50:00,59.1,32.1,30.03,South,191,3.0,3.0,36,0.00,,,0.00,Wunderground v.1.15,2013-03-10 17:50:00,
2013-03-10 13:55:00,59.0,32.7,30.03,South,191,2.0,6.0,37,0.00,,,0.00,Wunderground v.1.15,2013-03-10 17:55:00,
2013-03-10 14:05:00,59.6,32.6,30.03,SW,215,3.0,6.0,36,0.00,,,0.00,Wunderground v.1.15,2013-03-10 18:05:00,
2013-03-10 14:10:00,60.0,32.9,30.03,SW,224,3.0,3.0,36,0.00,,,0.00,Wunderground v.1.15,2013-03-10 18:10:00,
2013-03-10 14:15:00,61.3,35.5,30.02,SSE,148,2.0,5.0,38,0.00,,,0.00,Wunderground v.1.15,2013-03-10 18:15:00,
2013-03-10 14:20:00,62.0,34.7,30.02,SSE,148,2.0,6.0,36,0.00,,,0.00,Wunderground v.1.15,2013-03-10 18:20:00,
2013-03-10 14:25:00,62.3,33.6,30.02,SW,215,3.0,8.0,34,0.00,,,0.00,Wunderground v.1.15,2013-03-10 18:25:00,
2013-03-10 14:35:00,61.5,32.8,30.01,South,184,4.0,6.0,34,0.00,,,0.00,Wunderground v.1.15,2013-03-10 18:35:00,
2013-03-10 14:40:00,61.2,33.3,30.01,South,171,4.0,6.0,35,0.00,,,0.00,Wunderground v.1.15,2013-03-10 18:40:00,
2013-03-10 14:45:00,62.0,33.3,30.01,SSW,205,3.0,6.0,34,0.00,,,0.00,Wunderground v.1.15,2013-03-10 18:45:00,
2013-03-10 14:50:00,62.6,35.9,30.00,SSE,165,3.0,6.0,37,0.00,,,0.00,Wunderground v.1.15,2013-03-10 18:50:00,
2013-03-10 14:55:00,62.9,34.8,30.00,SSE,161,3.0,6.0,35,0.00,,,0.00,Wunderground v.1.15,2013-03-10 18:55:00,
2013-03-10 15:00:00,62.2,34.9,30.00,South,186,3.0,6.0,36,0.00,,,0.00,Wunderground v.1.15,2013-03-10 19:00:00,
2013-03-10 15:05:00,62.3,34.3,30.00,SSE,159,4.0,6.0,35,0.00,,,0.00,Wunderground v.1.15,2013-03-10 19:05:00,
2013-03-10 15:15:00,62.0,34.0,29.99,SSE,153,4.0,6.0,35,0.00,,,0.00,Wunderground v.1.15,2013-03-10 19:15:00,
2013-03-10 15:25:00,62.5,35.2,29.99,South,178,3.0,6.0,36,0.00,,,0.00,Wunderground v.1.15,2013-03-10 19:25:00,
2013-03-10 15:30:00,62.7,34.6,29.98,SSE,155,4.0,4.0,35,0.00,,,0.00,Wunderground v.1.15,2013-03-10 19:30:00,
2013-03-10 15:35:00,62.1,35.5,29.97,SSE,153,5.0,9.0,37,0.00,,,0.00,Wunderground v.1.15,2013-03-10 19:35:00,
2013-03-10 15:40:00,62.4,34.4,29.97,SE,146,5.0,7.0,35,0.00,,,0.00,Wunderground v.1.15,2013-03-10 19:40:00,
2013-03-10 15:45:00,62.7,35.3,29.97,SSW,211,5.0,7.0,36,0.00,,,0.00,Wunderground v.1.15,2013-03-10 19:45:00,
2013-03-10 15:50:00,63.2,34.3,29.97,SSE,161,3.0,6.0,34,0.00,,,0.00,Wunderground v.1.15,2013-03-10 19:50:00,
2013-03-10 15:55:00,63.3,34.4,29.97,SSW,193,3.0,6.0,34,0.00,,,0.00,Wunderground v.1.15,2013-03-10 19:55:00,
2013-03-10 16:05:00,63.4,34.5,29.97,SSE,153,4.0,6.0,34,0.00,,,0.00,Wunderground v.1.15,2013-03-10 20:05:00,
2013-03-10 16:15:00,63.2,33.6,29.96,South,190,4.0,6.0,33,0.00,,,0.00,Wunderground v.1.15,2013-03-10 20:15:00,
2013-03-10 16:20:00,62.8,34.0,29.96,SSW,197,4.0,6.0,34,0.00,,,0.00,Wunderground v.1.15,2013-03-10 20:20:00,
2013-03-10 16:30:00,62.0,34.7,29.96,South,169,4.0,6.0,36,0.00,,,0.00,Wunderground v.1.15,2013-03-10 20:30:00,
2013-03-10 16:35:00,61.9,34.6,29.96,SSE,161,3.0,3.0,36,0.00,,,0.00,Wunderground v.1.15,2013-03-10 20:35:00,
2013-03-10 16:45:00,61.8,33.8,29.96,SSE,168,3.0,3.0,35,0.00,,,0.00,Wunderground v.1.15,2013-03-10 20:45:00,
2013-03-10 16:55:00,61.8,34.5,29.95,South,169,3.0,6.0,36,0.00,,,0.00,Wunderground v.1.15,2013-03-10 20:55:00,
2013-03-10 17:00:00,61.6,33.7,29.95,SSE,165,3.0,3.0,35,0.00,,,0.00,Wunderground v.1.15,2013-03-10 21:00:00,
2013-03-10 17:05:00,61.2,34.7,29.95,SSE,163,3.0,6.0,37,0.00,,,0.00,Wunderground v.1.15,2013-03-10 21:05:00,
2013-03-10 17:10:00,61.0,34.5,29.95,SSE,159,2.0,2.0,37,0.00,,,0.00,Wunderground v.1.15,2013-03-10 21:10:00,
2013-03-10 17:15:00,61.2,35.4,29.95,SSE,161,2.0,6.0,38,0.00,,,0.00,Wunderground v.1.15,2013-03-10 21:15:00,
2013-03-10 17:20:00,61.4,34.9,29.95,SSE,153,2.0,6.0,37,0.00,,,0.00,Wunderground v.1.15,2013-03-10 21:20:00,
2013-03-10 17:25:00,61.5,34.3,29.95,SSE,153,3.0,6.0,36,0.00,,,0.00,Wunderground v.1.15,2013-03-10 21:25:00,
2013-03-10 17:30:00,61.6,35.1,29.95,South,187,3.0,3.0,37,0.00,,,0.00,Wunderground v.1.15,2013-03-10 21:30:00,
2013-03-10 17:40:00,61.0,34.5,29.96,SSW,198,3.0,3.0,37,0.00,,,0.00,Wunderground v.1.15,2013-03-10 21:40:00,
2013-03-10 17:45:00,60.6,34.2,29.95,SSE,165,2.0,6.0,37,0.00,,,0.00,Wunderground v.1.15,2013-03-10 21:45:00,
2013-03-10 17:50:00,60.5,34.7,29.95,SSE,153,2.0,6.0,38,0.00,,,0.00,Wunderground v.1.15,2013-03-10 21:50:00,
2013-03-10 17:55:00,60.3,34.6,29.95,SE,138,2.0,6.0,38,0.00,,,0.00,Wunderground v.1.15,2013-03-10 21:55:00,
2013-03-10 18:00:00,60.2,33.8,29.95,SSE,162,2.0,6.0,37,0.00,,,0.00,Wunderground v.1.15,2013-03-10 22:00:00,
2013-03-10 18:10:00,60.1,33.7,29.95,South,175,1.0,6.0,37,0.00,,,0.00,Wunderground v.1.15,2013-03-10 22:10:00,
2013-03-10 18:15:00,59.8,33.5,29.95,SSW,197,1.0,6.0,37,0.00,,,0.00,Wunderground v.1.15,2013-03-10 22:15:00,
2013-03-10 18:25:00,59.3,34.3,29.96,SSW,195,0.0,6.0,39,0.00,,,0.00,Wunderground v.1.15,2013-03-10 22:25:00,
2013-03-10 18:30:00,58.9,34.6,29.95,SSW,195,0.0,6.0,40,0.00,,,0.00,Wunderground v.1.15,2013-03-10 22:30:00,
2013-03-10 18:40:00,57.9,34.3,29.95,SSW,194,0.0,6.0,41,0.00,,,0.00,Wunderground v.1.15,2013-03-10 22:40:00,
2013-03-10 18:50:00,57.4,33.3,29.96,South,183,1.0,2.0,40,0.00,,,0.00,Wunderground v.1.15,2013-03-10 22:50:00,
2013-03-10 18:55:00,57.2,34.3,29.96,South,183,0.0,6.0,42,0.00,,,0.00,Wunderground v.1.15,2013-03-10 22:55:00,
2013-03-10 19:00:00,56.6,34.3,29.96,South,183,0.0,6.0,43,0.00,,,0.00,Wunderground v.1.15,2013-03-10 23:00:00,
2013-03-10 19:05:00,55.8,34.2,29.96,South,183,0.0,6.0,44,0.00,,,0.00,Wunderground v.1.15,2013-03-10 23:05:00,
2013-03-10 19:15:00,55.1,33.6,29.96,South,183,0.0,6.0,44,0.00,,,0.00,Wunderground v.1.15,2013-03-10 23:15:00,
2013-03-10 19:25:00,54.8,33.8,29.97,South,183,0.0,6.0,45,0.00,,,0.00,Wunderground v.1.15,2013-03-10 23:25:00,
2013-03-10 19:30:00,54.4,33.5,29.97,South,183,0.0,6.0,45,0.00,,,0.00,Wunderground v.1.15,2013-03-10 23:30:00,
2013-03-10 19:35:00,54.1,33.2,29.97,South,182,0.0,6.0,45,0.00,,,0.00,Wunderground v.1.15,2013-03-10 23:35:00,
2013-03-10 19:40:00,54.3,32.8,29.98,South,177,1.0,6.0,44,0.00,,,0.00,Wunderground v.1.15,2013-03-10 23:40:00,
2013-03-10 19:50:00,55.0,33.5,29.99,SSE,165,1.0,1.0,44,0.00,,,0.00,Wunderground v.1.15,2013-03-10 23:50:00,
2013-03-10 20:00:00,54.2,33.3,29.99,SSE,165,0.0,6.0,45,0.00,,,0.00,Wunderground v.1.15,2013-03-11 00:00:00,
2013-03-10 20:05:00,53.7,32.8,29.99,SSE,166,0.0,6.0,45,0.00,,,0.00,Wunderground v.1.15,2013-03-11 00:05:00,
2013-03-10 20:10:00,53.4,33.1,29.99,SSE,166,0.0,6.0,46,0.00,,,0.00,Wunderground v.1.15,2013-03-11 00:10:00,
2013-03-10 20:15:00,53.0,33.3,29.98,SSE,166,0.0,6.0,47,0.00,,,0.00,Wunderground v.1.15,2013-03-11 00:15:00,
2013-03-10 20:25:00,52.3,33.2,29.98,SSE,166,0.0,6.0,48,0.00,,,0.00,Wunderground v.1.15,2013-03-11 00:25:00,
2013-03-10 20:30:00,52.0,32.9,29.98,SSE,166,0.0,6.0,48,0.00,,,0.00,Wunderground v.1.15,2013-03-11 00:30:00,
2013-03-10 20:40:00,52.1,33.0,29.99,SSE,165,1.0,6.0,48,0.00,,,0.00,Wunderground v.1.15,2013-03-11 00:40:00,
2013-03-10 20:45:00,52.4,32.7,29.99,SSE,165,1.0,6.0,47,0.00,,,0.00,Wunderground v.1.15,2013-03-11 00:45:00,
2013-03-10 20:50:00,52.9,32.7,29.99,SSE,156,1.0,1.0,46,0.00,,,0.00,Wunderground v.1.15,2013-03-11 00:50:00,
2013-03-10 20:55:00,53.1,32.8,29.98,SSE,157,1.0,6.0,46,0.00,,,0.00,Wunderground v.1.15,2013-03-11 00:55:00,
2013-03-10 21:00:00,53.3,32.5,29.98,SSE,157,2.0,2.0,45,0.00,,,0.00,Wunderground v.1.15,2013-03-11 01:00:00,
2013-03-10 21:05:00,53.5,32.1,29.98,SSE,166,2.0,4.0,44,0.00,,,0.00,Wunderground v.1.15,2013-03-11 01:05:00,
2013-03-10 21:10:00,53.7,32.3,29.98,SSE,162,2.0,6.0,44,0.00,,,0.00,Wunderground v.1.15,2013-03-11 01:10:00,
2013-03-10 21:20:00,53.5,32.1,29.99,SSE,159,2.0,2.0,44,0.00,,,0.00,Wunderground v.1.15,2013-03-11 01:20:00,
2013-03-10 21:25:00,53.4,32.6,29.99,SSE,162,2.0,6.0,45,0.00,,,0.00,Wunderground v.1.15,2013-03-11 01:25:00,
2013-03-10 21:30:00,53.5,32.1,29.98,SSE,157,2.0,2.0,44,0.00,,,0.00,Wunderground v.1.15,2013-03-11 01:30:00,
2013-03-10 21:35:00,53.7,32.3,29.99,South,173,2.0,6.0,44,0.00,,,0.00,Wunderground v.1.15,2013-03-11 01:35:00,
2013-03-10 21:40:00,53.6,32.2,29.99,SSE,158,2.0,6.0,44,0.00,,,0.00,Wunderground v.1.15,2013-03-11 01:40:00,
2013-03-10 21:50:00,54.1,32.6,29.99,South,178,3.0,3.0,44,0.00,,,0.00,Wunderground v.1.15,2013-03-11 01:50:00,
2013-03-10 21:55:00,54.0,32.0,29.98,South,170,3.0,4.0,43,0.00,,,0.00,Wunderground v.1.15,2013-03-11 01:55:00,
2013-03-10 22:00:00,54.0,32.6,29.98,SSE,161,3.0,3.0,44,0.00,,,0.00,Wunderground v.1.15,2013-03-11 02:00:00,
2013-03-10 22:05:00,53.8,32.4,29.98,South,171,3.0,6.0,44,0.00,,,0.00,Wunderground v.1.15,2013-03-11 02:05:00,
2013-03-10 22:10:00,53.7,31.7,29.99,SSE,160,3.0,6.0,43,0.00,,,0.00,Wunderground v.1.15,2013-03-11 02:10:00,
2013-03-10 22:15:00,53.5,32.1,29.98,SSE,166,3.0,6.0,44,0.00,,,0.00,Wunderground v.1.15,2013-03-11 02:15:00,
2013-03-10 22:20:00,53.3,31.9,29.99,SSE,159,2.0,2.0,44,0.00,,,0.00,Wunderground v.1.15,2013-03-11 02:20:00,
2013-03-10 22:30:00,53.2,32.4,29.99,South,178,2.0,6.0,45,0.00,,,0.00,Wunderground v.1.15,2013-03-11 02:30:00,
2013-03-10 22:35:00,53.1,32.3,29.99,SSE,162,2.0,6.0,45,0.00,,,0.00,Wunderground v.1.15,2013-03-11 02:35:00,
2013-03-10 22:40:00,53.3,32.5,29.99,South,169,3.0,3.0,45,0.00,,,0.00,Wunderground v.1.15,2013-03-11 02:40:00,
2013-03-10 22:45:00,53.2,32.4,29.98,SSE,160,3.0,4.0,45,0.00,,,0.00,Wunderground v.1.15,2013-03-11 02:45:00,
2013-03-10 22:50:00,53.0,31.6,29.98,South,176,2.0,2.0,44,0.00,,,0.00,Wunderground v.1.15,2013-03-11 02:50:00,
2013-03-10 22:55:00,52.8,32.0,29.97,SSE,159,2.0,6.0,45,0.00,,,0.00,Wunderground v.1.15,2013-03-11 02:55:00,
2013-03-10 23:05:00,52.8,32.0,29.97,SSE,153,2.0,6.0,45,0.00,,,0.00,Wunderground v.1.15,2013-03-11 03:05:00,
2013-03-10 23:10:00,52.6,31.3,29.96,SSE,162,2.0,2.0,44,0.00,,,0.00,Wunderground v.1.15,2013-03-11 03:10:00,
2013-03-10 23:20:00,52.4,31.7,29.96,SSE,155,2.0,2.0,45,0.00,,,0.00,Wunderground v.1.15,2013-03-11 03:20:00,
2013-03-10 23:25:00,52.1,31.9,29.96,SSE,157,2.0,6.0,46,0.00,,,0.00,Wunderground v.1.15,2013-03-11 03:25:00,
2013-03-10 23:30:00,51.9,31.7,29.96,SSE,165,2.0,2.0,46,0.00,,,0.00,Wunderground v.1.15,2013-03-11 03:30:00,
2013-03-10 23:35:00,51.9,31.7,29.96,SSE,165,1.0,6.0,46,0.00,,,0.00,Wunderground v.1.15,2013-03-11 03:35:00,
2013-03-10 23:45:00,52.0,31.3,29.95,SSE,155,2.0,6.0,45,0.00,,,0.00,Wunderground v.1.15,2013-03-11 03:45:00,
2013-03-10 23:50:00,52.1,31.4,29.95,SSE,165,2.0,2.0,45,0.00,,,0.00,Wunderground v.1.15,2013-03-11 03:50:00,
2013-03-10 23:55:00,51.9,31.7,29.96,SSE,158,2.0,6.0,46,0.00,,,0.00,Wunderground v.1.15,2013-03-11 03:55:00,